Regional Weather Roundup
Issued by NWS

Home | Current Version | Previous Version | Text Only | Print | Product List | Glossary On
Versions: 1 2 3 4 5 6 7 8 9 10 11 12 13 14 15 16 17 18 19 20 21 22 23 24 25 26 27 28 29 30 31 32 33 34 35 36 37 38 39 40 41 42 43 44 45 46 47 48 49 50
000
ASUS43 KLOT 020310
RWRIL

ILLINOIS REGIONAL WEATHER ROUNDUP
NATIONAL WEATHER SERVICE CHICAGO/ROMEOVILLE IL
900 PM CST SUN MAR 01 2015

NOTE: "FAIR" INDICATES FEW OR NO CLOUDS BELOW 12,000 FEET WITH NO
SIGNIFICANT WEATHER AND/OR OBSTRUCTIONS TO VISIBILITY.

* THESE STATIONS ARE NOT UNDER NWS QUALITY CONTROL. THEY ALSO MAY NOT
  REPORT WEATHER SUCH AS PRECIPITATION OR FOG.

ILZ001-002-007-009-015-016-024-020400-
NORTHWEST ILLINOIS

CITY           SKY/WX    TMP DP  RH WIND       PRES   REMARKS
MOLINE         PTCLDY    21  10  62 W9        30.40R WCI  11
STERLING*      CLEAR     19  12  73 NW14      30.37R WCI   6
SAVANNA*       CLEAR     21  10  64 W6        30.38R WCI  13
$$

ILZ003-004-008-010-011-017-018-020400-
NORTH CENTRAL ILLINOIS

CITY           SKY/WX    TMP DP  RH WIND       PRES   REMARKS
ROCKFORD       CLEAR     20  11  68 W12       30.35R WCI   8
FREEPORT*      CLEAR     18   9  68 W9        30.35R WCI   7
ROCHELLE*      CLEAR     17  12  81 W14       30.35R WCI   3
DE KALB*       CLEAR     18  13  82 W14       30.32R WCI   4
PERU*          PTCLDY    19  14  81 W14       30.38R WCI   6
$$

ILZ005-006-012>014-019>023-020400-
NORTHEAST ILLINOIS

CITY           SKY/WX    TMP DP  RH WIND       PRES   REMARKS
CHICAGO-OHARE  CLEAR     19  13  77 W13       30.29R WCI   6
CHICAGO-MIDWAY CLEAR     21  14  74 W14       30.31R WCI   8
AURORA         CLEAR     16  10  77 W9        30.33R WCI   4
LANSING*       CLEAR     19  13  79 W7        30.32R WCI   9
JOLIET*        PTCLDY    17  11  80 W5        30.35R WCI  10
WAUKEGAN       CLEAR     21  15  78 W10G18    30.26R WCI  10
DUPAGE AIRPORT CLEAR     17  12  80 W12       30.31R WCI   4
KANKAKEE*      PTCLDY    15  12  88 W10       30.36R WCI   2
WHEELING       CLEAR     20  14  77 W8        30.31R WCI  10
MORRIS*        PTCLDY    15  12  88 W8        30.34R WCI   4
ROMEOVILLE*    PTCLDY    17  12  81 W12       30.33R WCI   4
NORTHERLY ISL    N/A     22  15  75 W10         N/A  WCI  11
$$

LMZ740>746-020400-
SOUTHERN LAKE MICHIGAN

STATION/POSITION SKY/WX   TEMP    WIND        PRES    VSBY  WAVE
                          AIR SEA DIR/SP/G                  HT/PER
                          (F)     (DEG/KT/KT) (MB)    (MI)  (FT/S)
WAUKEGAN HARBOR            22     250/ 13/ 21   N/A
HARRISON CRIB              22     250/ 18/ 22   N/A
BURNHAM HARBOR             22     260/ 12/ 12   N/A
CALUMET HARBOR             20     230/  6/ 10 1025.0S
MICHIGAN CITY              19     220/ 13/ 15   N/A
$$

ILZ025>027-034>036-040-047-049-050-058-095>099-020400-
WEST-CENTRAL ILLINOIS

CITY           SKY/WX    TMP DP  RH WIND       PRES   REMARKS
QUINCY         MOCLDY    24  17  74 W3        30.43R
GALESBURG*     PTCLDY    16  13  87 W6        30.41R WCI   8
MACOMB*        CLOUDY    19  16  88 W7        30.44R WCI  10
JACKSONVILLE*  MOCLDY    21  17  83 W7        30.43R WCI  12
PITTSFIELD*    MOCLDY    21  17  84 W3        30.45R
$$

ILZ028>032-037-038-041>044-048-051>054-059>061-020400-
CENTRAL ILLINOIS

CITY           SKY/WX    TMP DP  RH WIND       PRES   REMARKS
PONTIAC        PTCLDY    16  12  86 W10       30.38R WCI   3
BLOOMINGTON    MOCLDY    22  17  81 W13       30.39R WCI  10
DECATUR        MOCLDY    23  17  78 NW10      30.41R WCI  12
PEORIA         MOCLDY    21  15  78 SW3       30.42R
LACON*         PTCLDY    20  14  76 W3        30.40R
LINCOLN*       MOCLDY    24  17  77 W5        30.44R WCI  18
SPRINGFIELD    MOCLDY    22  16  78 NW6       30.43R WCI  14
TAYLORVILLE    PTCLDY    21  19  93 W6        30.43R WCI  14
$$

ILZ033-039-045-046-055>057-062-063-020400-
EAST-CENTRAL ILLINOIS

CITY           SKY/WX    TMP DP  RH WIND       PRES   REMARKS
CHAMPAIGN      PTCLDY    19  15  84 W10       30.38R WCI   7
DANVILLE*      CLOUDY    21  18  86 W6        30.35R WCI  14
RANTOUL*       MOCLDY    20  17  87 W9        30.38R WCI  10
MATTOON        MOCLDY    21  17  84 NW9       30.39R WCI  11
PARIS*         MOCLDY    22  20  92 NW9       30.39R WCI  12
$$

ILZ079-100>102-020400-
SOUTHWEST ILLINOIS

CITY           SKY/WX    TMP DP  RH WIND       PRES   REMARKS
ALTON          CLEAR     23  19  86 CALM      30.45R
BELLEVILLE     PTCLDY    20  19  98 NW5       30.44R WCI  13
CAHOKIA*       MOCLDY    28  23  81 W5        30.45R WCI  23
SPARTA*        CLOUDY    29  25  84 NW3       30.45R
$$

ILZ064>066-069>071-074>076-080>082-084>086-088>090-092>094-020400-
SOUTH-CENTRAL ILLINOIS

CITY           SKY/WX    TMP DP  RH WIND       PRES   REMARKS
CARBONDALE     CLOUDY    31  24  75 NW8       30.44R WCI  23
CAIRO*         CLOUDY    36  31  82 NW12      30.42R WCI  28
EFFINGHAM*     MOCLDY    25  19  77 W5        30.43R WCI  20
MARION         CLOUDY    32  27  80 NW6       30.45R WCI  26
MT. VERNON     PTCLDY    27  21  80 CALM      30.44R
CENTRALIA*     FAIR      26  21  83 NW5       30.43R WCI  20
SALEM*         PTCLDY    26  22  83 NW3       30.43R
METROPOLIS*    CLOUDY    34  31  88 NW9       30.41R WCI  27
$$

ILZ067-068-072-073-078-083-087-091-020400-
SOUTHEAST ILLINOIS

CITY           SKY/WX    TMP DP  RH WIND       PRES   REMARKS
LAWRENCEVILLE  MOCLDY    29  24  82 NW12      30.41R WCI  19
FLORA*         MOCLDY    27  23  86 NW8       30.43R WCI  18
FAIRFIELD*     CLEAR     28  24  82 CALM      30.42R
HARRISBURG*    CLOUDY    32  28  86 NW9       30.44R WCI  24
ROBINSON*      MOCLDY    28  25  89 NW8       30.43R WCI  19
CARMI*         PTCLDY    33  31  92 NW9       30.41R WCI  25
$$

ABBREVIATIONS USED IN REMARKS
   TC - TEMPERATURE IN CELSIUS
  WCI - WIND CHILL INDEX
   HX - HEAT INDEX
  VSB - VISIBILITY
$$




USA.gov is the U.S. government's official web portal to all federal, state and local government web resources and services.